[[{"header":{"parameterUnit":"m.s-1","parameterCategory":2,"la1":30.2992,"la2":30.254,"lo1":-89.0895,"lo2":-89.0443,"dy":0.0025,"dx":0.0025,"nx":19,"ny":19,"refTime":"2026-05-13T21:00:00:Z","depth":"0","parameterNumber":2,"parameterNumberName":"U-component_of_CURRENTS"},"data":[0,0,0,-0.1385,-0.1386,-0.1434,-0.1435,-0.1498,-0.1498,0,0,0,0,0,0,0,0,0,0,0,-0.1378,-0.1378,-0.1385,-0.1386,-0.1434,-0.1435,-0.1498,-0.1498,0,0,0,0,0,0,0,0,0,0,0,-0.1378,-0.1378,-0.1379,-0.1386,-0.1434,-0.1435,-0.1498,-0.1464,0,0,0,0,0,0,0,0,0,0,-0.1418,-0.1394,-0.1378,-0.1379,-0.1386,-0.1434,-0.1435,-0.1462,-0.1466,-0.1472,0,-0.148,0,-0.1481,-0.1502,-0.1502,0,0,0,-0.1398,-0.1391,-0.1413,-0.1379,-0.1386,-0.1434,-0.1416,-0.1465,-0.1469,-0.1477,-0.1481,-0.1483,-0.1482,-0.1502,-0.1502,-0.1614,-0.1615,0,0,-0.1396,-0.1379,-0.141,-0.1415,-0.1399,-0.1414,-0.1417,-0.1467,-0.1466,-0.1481,-0.1484,-0.1483,-0.1502,-0.1503,-0.1613,-0.1614,0,0,0,-0.1379,-0.1377,-0.1398,-0.1413,-0.1416,-0.1415,-0.1419,-0.1464,-0.1474,-0.1485,-0.1483,-0.1502,-0.1503,-0.1612,-0.1613,-0.1621,0,0,0,-0.1378,-0.1367,-0.1397,-0.1386,-0.1415,-0.1436,-0.1414,-0.1471,-0.1476,-0.1483,-0.1502,-0.1503,-0.1611,-0.1613,-0.1619,-0.1648,0,0,0,-0.1376,-0.1366,-0.1374,-0.1385,-0.1401,-0.1436,-0.1448,-0.1472,-0.1474,-0.1502,-0.1504,-0.161,-0.1612,-0.1617,-0.1644,-0.1728,0,0,0,-0.1355,-0.1369,-0.1373,-0.1392,-0.14,-0.1469,-0.1448,-0.1494,-0.1523,-0.1503,-0.1611,-0.1613,-0.1616,-0.1642,-0.1725,-0.1679,-0.1691,0,0,-0.1363,-0.1369,-0.1383,-0.1389,-0.1435,-0.1463,-0.1529,-0.1549,-0.1558,-0.1594,-0.1597,-0.162,-0.1644,-0.1728,-0.18,-0.1808,0,0,0,-0.138,-0.1385,-0.1406,-0.1426,-0.1479,-0.1534,-0.1566,-0.159,-0.1631,-0.1581,-0.1661,-0.1677,-0.1729,-0.1695,-0.1702,-0.1625,-0.1623,-0.1623,-0.1622,-0.1371,-0.1393,-0.142,-0.146,-0.151,-0.1588,-0.1648,-0.169,-0.1678,-0.1707,-0.1712,-0.1824,-0.1787,-0.1792,-0.1713,-0.1732,-0.1732,-0.1732,-0.1732,-0.1384,-0.1395,-0.1428,-0.1459,-0.1526,-0.1593,-0.1701,-0.172,-0.1824,-0.1775,-0.1824,-0.1741,-0.18,-0.1713,-0.1734,-0.1733,-0.1733,-0.1733,-0.1733,-0.137,-0.1378,-0.1392,-0.1447,-0.1516,-0.1605,-0.1728,-0.1796,-0.1844,-0.1902,-0.19,-0.1898,-0.1801,-0.1928,-0.1929,-0.193,-0.193,-0.193,-0.1931,-0.1352,-0.1367,-0.1393,-0.1454,-0.1503,-0.1606,-0.1764,-0.1856,-0.1937,-0.1945,-0.1944,-0.1838,-0.1885,-0.1853,-0.1938,-0.1937,-0.1936,-0.1935,-0.1935,-0.1311,-0.1349,-0.1389,-0.1429,-0.1552,-0.1636,-0.1784,-0.1927,-0.2037,-0.2063,-0.1903,-0.198,-0.1989,-0.1982,-0.1954,-0.2061,-0.2061,-0.2061,-0.2061,-0.1297,-0.1315,-0.1381,-0.1447,-0.1556,-0.165,-0.1764,-0.1876,-0.1929,-0.1898,-0.1913,-0.1814,-0.1812,-0.1806,-0.1803,-0.1769,-0.1828,-0.1828,-0.1827,-0.1269,-0.131,-0.1337,-0.1422,-0.1539,-0.1642,-0.1675,-0.1714,-0.1777,-0.1812,-0.1821,-0.1831,-0.1677,-0.168,-0.1658,-0.166,-0.1601,0,0]},{"header":{"parameterUnit":"m.s-1","parameterCategory":2,"la1":30.2992,"la2":30.254,"lo1":-89.0895,"lo2":-89.0443,"dy":0.0025,"dx":0.0025,"nx":19,"ny":19,"refTime":"2026-05-13T21:00:00:Z","depth":"0","parameterNumber":3,"parameterNumberName":"V-component_of_CURRENTS"},"data":[0,0,0,-0.0248,-0.0248,-0.0279,-0.028,-0.0334,-0.0335,0,0,0,0,0,0,0,0,0,0,0,-0.0247,-0.0247,-0.0248,-0.0248,-0.0279,-0.028,-0.0334,-0.0335,0,0,0,0,0,0,0,0,0,0,0,-0.0247,-0.0247,-0.0247,-0.0248,-0.0279,-0.028,-0.0334,-0.0309,0,0,0,0,0,0,0,0,0,0,-0.0277,-0.0262,-0.0247,-0.0247,-0.0248,-0.0279,-0.028,-0.0308,-0.031,-0.0321,0,-0.0329,0,-0.0325,-0.0338,-0.0338,0,0,0,-0.0257,-0.0259,-0.0274,-0.0248,-0.0248,-0.0279,-0.0268,-0.0309,-0.0312,-0.0325,-0.0329,-0.0331,-0.0326,-0.0338,-0.0338,-0.0353,-0.0353,0,0,-0.0255,-0.0247,-0.0272,-0.0276,-0.026,-0.0267,-0.0269,-0.0311,-0.0312,-0.0329,-0.0332,-0.0327,-0.0338,-0.0339,-0.0353,-0.0353,0,0,0,-0.0244,-0.0245,-0.0259,-0.0275,-0.0275,-0.0267,-0.027,-0.031,-0.0317,-0.0332,-0.0327,-0.0339,-0.0339,-0.0354,-0.0353,-0.0365,0,0,0,-0.0244,-0.0238,-0.0258,-0.0253,-0.0274,-0.0288,-0.0268,-0.0315,-0.0319,-0.0327,-0.0339,-0.034,-0.0354,-0.0353,-0.0365,-0.0387,0,0,0,-0.0245,-0.0238,-0.0244,-0.0252,-0.0261,-0.0287,-0.0296,-0.0315,-0.0315,-0.0338,-0.034,-0.0354,-0.0353,-0.0366,-0.0387,-0.0402,0,0,0,-0.0231,-0.0242,-0.0244,-0.0257,-0.0261,-0.0293,-0.0296,-0.0321,-0.0341,-0.0339,-0.0354,-0.0353,-0.0366,-0.0387,-0.0402,-0.0507,-0.0518,0,0,-0.0238,-0.0243,-0.0252,-0.0254,-0.0285,-0.0289,-0.0312,-0.0338,-0.0334,-0.0343,-0.0343,-0.0365,-0.0387,-0.0402,-0.0481,-0.0493,0,0,0,-0.025,-0.0261,-0.0273,-0.0287,-0.0306,-0.0328,-0.034,-0.0338,-0.0342,-0.0341,-0.0353,-0.0366,-0.0375,-0.0437,-0.0446,-0.0265,-0.0351,-0.0351,-0.0351,-0.0253,-0.0266,-0.0294,-0.0319,-0.0336,-0.0352,-0.0364,-0.0358,-0.0354,-0.0344,-0.0365,-0.0373,-0.0438,-0.0447,-0.0257,-0.0345,-0.0345,-0.0345,-0.0345,-0.0285,-0.0301,-0.0321,-0.0353,-0.0368,-0.0386,-0.0387,-0.0377,-0.0379,-0.0361,-0.0369,-0.0434,-0.0458,-0.0252,-0.0345,-0.0345,-0.0345,-0.0345,-0.0345,-0.029,-0.0301,-0.0326,-0.0376,-0.0404,-0.0417,-0.0457,-0.0432,-0.0399,-0.0406,-0.0477,-0.0478,-0.0308,-0.0409,-0.0409,-0.0409,-0.0409,-0.0409,-0.0409,-0.0283,-0.0312,-0.0361,-0.0408,-0.0447,-0.0483,-0.0502,-0.0518,-0.0527,-0.0511,-0.0511,-0.029,-0.0393,-0.0403,-0.0412,-0.0411,-0.0411,-0.0411,-0.0411,-0.03,-0.0315,-0.0393,-0.0443,-0.0544,-0.0642,-0.0634,-0.0702,-0.0689,-0.0711,-0.0413,-0.0566,-0.0578,-0.0572,-0.0586,-0.0641,-0.0641,-0.0641,-0.0641,-0.0308,-0.0322,-0.0444,-0.0543,-0.0643,-0.072,-0.0879,-0.0902,-0.0697,-0.0542,-0.0399,-0.0369,-0.0368,-0.0363,-0.0361,-0.0368,-0.0366,-0.0365,-0.0364,-0.0341,-0.0371,-0.0467,-0.0569,-0.0699,-0.0831,-0.1015,-0.1043,-0.0644,-0.0326,-0.0116,-0.0128,-0.0051,-0.0064,-0.0033,-0.0045,-0.0049,0,0]}],[{"header":{"parameterUnit":"m.s-1","parameterCategory":2,"la1":30.2992,"la2":30.254,"lo1":-89.0895,"lo2":-89.0443,"dy":0.0025,"dx":0.0025,"nx":19,"ny":19,"refTime":"2026-05-13T21:00:00:Z","depth":"2","parameterNumber":2,"parameterNumberName":"U-component_of_CURRENTS"},"data":[0,0,0,-0.0703,-0.0704,-0.0758,-0.0759,-0.0662,-0.0661,0,0,0,0,0,0,0,0,0,0,0,-0.0711,-0.0712,-0.0703,-0.0704,-0.0758,-0.0759,-0.0662,-0.0661,0,0,0,0,0,0,0,0,0,0,0,-0.0711,-0.0712,-0.0713,-0.0704,-0.0758,-0.0759,-0.0663,-0.0665,0,0,0,0,0,0,0,0,0,0,-0.0634,-0.0669,-0.0712,-0.0713,-0.0704,-0.0758,-0.0759,-0.0668,-0.0665,-0.0587,0,-0.0616,0,-0.0615,-0.065,-0.0649,0,0,0,-0.0714,-0.0672,-0.0672,-0.0713,-0.0705,-0.0758,-0.0737,-0.0668,-0.0665,-0.0583,-0.0615,-0.0612,-0.0613,-0.0648,-0.0648,-0.0722,-0.0724,0,0,-0.0711,-0.0724,-0.0675,-0.0671,-0.074,-0.0735,-0.0738,-0.0668,-0.0677,-0.0614,-0.0609,-0.0611,-0.0647,-0.0646,-0.072,-0.0723,0,0,0,-0.0696,-0.0723,-0.0729,-0.0675,-0.0686,-0.0736,-0.074,-0.0682,-0.0681,-0.0609,-0.061,-0.0646,-0.0644,-0.0718,-0.0721,-0.0758,0,0,0,-0.0694,-0.0712,-0.0728,-0.0736,-0.0689,-0.0707,-0.0756,-0.0688,-0.0679,-0.0611,-0.0646,-0.0643,-0.0716,-0.072,-0.0752,-0.0724,0,0,0,-0.0705,-0.0712,-0.0724,-0.0737,-0.0752,-0.0709,-0.0707,-0.0687,-0.0677,-0.0649,-0.0642,-0.0714,-0.0719,-0.0746,-0.0718,-0.0665,0,0,0,-0.0707,-0.074,-0.0725,-0.0765,-0.0751,-0.0728,-0.0708,-0.0654,-0.0622,-0.0645,-0.0716,-0.0721,-0.0745,-0.0714,-0.0663,-0.0827,-0.085,0,0,-0.0743,-0.0746,-0.0767,-0.0754,-0.0748,-0.072,-0.0734,-0.0666,-0.0694,-0.0722,-0.0725,-0.0754,-0.0717,-0.0665,-0.1112,-0.1126,0,0,0,-0.0774,-0.0787,-0.077,-0.0791,-0.0759,-0.079,-0.0726,-0.0707,-0.0791,-0.0703,-0.0845,-0.0822,-0.0785,-0.0884,-0.0898,-0.0745,-0.0744,-0.0743,-0.0743,-0.0817,-0.0827,-0.0836,-0.0851,-0.085,-0.0809,-0.0805,-0.0823,-0.0797,-0.0889,-0.092,-0.0998,-0.1117,-0.1125,-0.1023,-0.1024,-0.1024,-0.1024,-0.1024,-0.0811,-0.0855,-0.087,-0.0884,-0.0938,-0.0957,-0.0958,-0.0955,-0.0966,-0.1021,-0.0984,-0.1007,-0.1141,-0.1029,-0.1028,-0.1027,-0.1027,-0.1027,-0.1026,-0.0803,-0.0853,-0.085,-0.0892,-0.0995,-0.1044,-0.1037,-0.1044,-0.1034,-0.1014,-0.11,-0.1102,-0.0906,-0.1017,-0.1017,-0.1017,-0.1017,-0.1016,-0.1016,-0.085,-0.0853,-0.0863,-0.09,-0.0954,-0.1048,-0.109,-0.1074,-0.1126,-0.1141,-0.1142,-0.0993,-0.0993,-0.0908,-0.1012,-0.1013,-0.1013,-0.1014,-0.1014,-0.0884,-0.0857,-0.0866,-0.0879,-0.0979,-0.0972,-0.1064,-0.115,-0.1138,-0.1183,-0.1186,-0.1183,-0.1155,-0.1149,-0.1071,-0.1209,-0.1209,-0.1209,-0.1209,-0.0894,-0.0882,-0.0919,-0.0925,-0.0933,-0.0971,-0.1035,-0.1197,-0.127,-0.1294,-0.1289,-0.1368,-0.1361,-0.1344,-0.1334,-0.1258,-0.1444,-0.1444,-0.1444,-0.0851,-0.0909,-0.0911,-0.0943,-0.0922,-0.093,-0.1011,-0.1219,-0.1332,-0.144,-0.1192,-0.1252,-0.1362,-0.1352,-0.132,-0.1306,-0.1182,0,0]},{"header":{"parameterUnit":"m.s-1","parameterCategory":2,"la1":30.2992,"la2":30.254,"lo1":-89.0895,"lo2":-89.0443,"dy":0.0025,"dx":0.0025,"nx":19,"ny":19,"refTime":"2026-05-13T21:00:00:Z","depth":"2","parameterNumber":3,"parameterNumberName":"V-component_of_CURRENTS"},"data":[0,0,0,0.0019,0.0019,0.0013,0.0013,0.0106,0.0107,0,0,0,0,0,0,0,0,0,0,0,0.0004,0.0004,0.0019,0.0019,0.0013,0.0013,0.0106,0.0107,0,0,0,0,0,0,0,0,0,0,0,0.0005,0.0004,0.0003,0.0019,0.0013,0.0013,0.0106,0.0087,0,0,0,0,0,0,0,0,0,0,0.0081,0.0028,0.0004,0.0003,0.0019,0.0013,0.0013,0.0085,0.0088,0.0136,0,0.0113,0,0.012,0.0115,0.0116,0,0,0,0.0025,0.0025,0.0047,0.0003,0.0019,0.0013,0.0017,0.0086,0.009,0.0141,0.0114,0.0118,0.0122,0.0116,0.0117,0.0124,0.0123,0,0,0.0025,-0.001,0.0044,0.0049,-0.0009,0.0017,0.0017,0.0087,0.0069,0.0115,0.012,0.0123,0.0117,0.0118,0.0125,0.0124,0,0,0,0.0022,-0.0011,0.0007,0.0045,0.004,0.0017,0.0017,0.0065,0.0076,0.0121,0.0124,0.0118,0.0119,0.0125,0.0124,0.0072,0,0,0,0.0023,-0.0012,0.0007,-0.0016,0.0037,0.0033,-0.0008,0.0071,0.0079,0.0124,0.0118,0.012,0.0126,0.0125,0.0076,0.0082,0,0,0,0.0009,-0.0013,-0.0017,-0.0018,-0.0018,0.0032,0.0046,0.0072,0.0082,0.0116,0.012,0.0127,0.0125,0.0079,0.0086,0.0132,0,0,0,-0.002,-0.0044,-0.002,-0.0054,-0.0019,0.0015,0.0046,0.0087,0.0117,0.0118,0.0126,0.0124,0.008,0.0088,0.0133,0.0025,0.0011,0,0,-0.0055,-0.005,-0.0066,-0.0043,-0.0022,0.0017,0.0024,0.0085,0.0095,0.0115,0.0114,0.0075,0.0086,0.0132,-0.0088,-0.0098,0,0,0,-0.0079,-0.009,-0.0075,-0.0078,-0.0035,-0.0032,0.003,0.0073,0.0066,0.0099,0.0049,0.0058,0.009,0.0025,0.0016,0.0115,0.0115,0.0115,0.0116,-0.0138,-0.0125,-0.0139,-0.0125,-0.0111,-0.0044,-0.0009,0.0032,0.0054,0.003,-0.0004,-0.003,-0.0107,-0.0113,-0.0042,-0.0043,-0.0043,-0.0043,-0.0043,-0.0168,-0.019,-0.0188,-0.0195,-0.0183,-0.0176,-0.0096,-0.0064,-0.0012,-0.0039,-0.0007,-0.0054,-0.0125,-0.0048,-0.0047,-0.0046,-0.0046,-0.0045,-0.0045,-0.0194,-0.021,-0.0223,-0.0248,-0.0276,-0.0258,-0.0227,-0.016,-0.0075,-0.0053,-0.0106,-0.0106,-0.0003,-0.0063,-0.0063,-0.0062,-0.0062,-0.0062,-0.0062,-0.0221,-0.0234,-0.0276,-0.0297,-0.0333,-0.0359,-0.0305,-0.0243,-0.0188,-0.015,-0.0151,-0.0035,-0.0034,-0.0003,-0.0059,-0.006,-0.006,-0.006,-0.006,-0.0265,-0.0274,-0.0322,-0.036,-0.0432,-0.0478,-0.0424,-0.0373,-0.0276,-0.0251,-0.0171,-0.0169,-0.0139,-0.0135,-0.0106,-0.0184,-0.0184,-0.0184,-0.0184,-0.0307,-0.0308,-0.0401,-0.0465,-0.0517,-0.0548,-0.0607,-0.0506,-0.0332,-0.0193,-0.0192,-0.024,-0.0238,-0.0213,-0.0206,-0.0178,-0.0274,-0.0274,-0.0273,-0.0347,-0.0364,-0.0447,-0.0507,-0.0575,-0.0632,-0.074,-0.0668,-0.0313,-0.0266,-0.0096,-0.0212,-0.0286,-0.0279,-0.0241,-0.0231,-0.0185,0,0]}],[{"header":{"parameterUnit":"m.s-1","parameterCategory":2,"la1":30.2992,"la2":30.254,"lo1":-89.0895,"lo2":-89.0443,"dy":0.0025,"dx":0.0025,"nx":19,"ny":19,"refTime":"2026-05-13T21:00:00:Z","depth":"4","parameterNumber":2,"parameterNumberName":"U-component_of_CURRENTS"},"data":[0,0,0,-0.0591,-0.0591,-0.0634,-0.0635,-0.0867,-0.0869,0,0,0,0,0,0,0,0,0,0,0,-0.0589,-0.0589,-0.0591,-0.0591,-0.0634,-0.0635,-0.0866,-0.0869,0,0,0,0,0,0,0,0,0,0,0,-0.0589,-0.0589,-0.0589,-0.0591,-0.0634,-0.0635,-0.0866,-0.0794,0,0,0,0,0,0,0,0,0,0,-0.0731,-0.0691,-0.0589,-0.0589,-0.0591,-0.0634,-0.0635,-0.0788,-0.0798,-0.0892,0,-0.0893,0,-0.0878,-0.0887,-0.0888,0,0,0,-0.0609,-0.0682,-0.0696,-0.0589,-0.0591,-0.0634,-0.062,-0.0793,-0.0804,-0.0906,-0.0896,-0.0903,-0.0882,-0.0889,-0.089,-0.1115,-0.1115,0,0,-0.0607,-0.0603,-0.0688,-0.0703,-0.06,-0.0618,-0.0621,-0.0798,-0.0812,-0.0896,-0.0907,-0.0886,-0.0891,-0.0893,-0.1114,-0.1115,0,0,0,-0.0588,-0.0601,-0.0607,-0.0695,-0.0684,-0.0619,-0.0622,-0.0804,-0.0806,-0.0909,-0.0889,-0.0892,-0.0895,-0.1114,-0.1114,-0.1104,0,0,0,-0.0587,-0.0588,-0.0606,-0.0605,-0.0679,-0.0718,-0.0625,-0.0794,-0.0813,-0.0888,-0.0892,-0.0898,-0.1113,-0.1114,-0.1103,-0.1049,0,0,0,-0.0587,-0.0588,-0.0592,-0.0605,-0.0613,-0.0714,-0.0726,-0.0797,-0.0801,-0.0888,-0.0899,-0.1113,-0.1114,-0.1102,-0.105,-0.1023,0,0,0,-0.0584,-0.0594,-0.0592,-0.0604,-0.0612,-0.0639,-0.0724,-0.0783,-0.0853,-0.0894,-0.1113,-0.1114,-0.1102,-0.105,-0.1024,-0.0892,0,0,0,-0.0594,-0.0595,-0.0602,-0.0601,-0.0612,-0.0635,-0.0687,-0.0824,-0.0907,-0.107,-0.1074,-0.1103,-0.105,-0.1023,-0.0959,0,0,0,0,-0.0604,-0.0607,-0.0612,-0.0618,-0.0634,-0.0655,-0.0754,-0.0821,-0.098,-0.0948,-0.1128,-0.1094,-0.1078,-0.1007,-0.112,-0.112,-0.1119,-0.1119,-0.1119,-0.0587,-0.06,-0.0612,-0.0625,-0.0638,-0.0702,-0.0754,-0.0873,-0.0979,-0.1048,-0.1107,-0.1101,-0.103,-0.1157,-0.1157,-0.1157,-0.1157,-0.1157,-0.1157,-0.059,-0.0588,-0.0608,-0.0628,-0.0644,-0.0687,-0.0797,-0.0882,-0.102,-0.1094,-0.1081,-0.1027,-0.1157,-0.1157,-0.1157,-0.1157,-0.1157,-0.1157,-0.1157,-0.0562,-0.0565,-0.0593,-0.0621,-0.0643,-0.0697,-0.0751,-0.0872,-0.0982,-0.1012,-0.0958,-0.1074,-0.1049,-0.1041,-0.1041,-0.104,-0.104,-0.104,-0.104,-0.0516,-0.0545,-0.0573,-0.0612,-0.0627,-0.066,-0.0743,-0.0774,-0.0878,-0.0894,-0.1019,-0.106,-0.1064,-0.1042,-0.1035,-0.1035,-0.1036,-0.1037,-0.1037,-0.0481,-0.0502,-0.0537,-0.0565,-0.0609,-0.0619,-0.0685,-0.0667,-0.0691,-0.0681,-0.0824,-0.0836,-0.0811,-0.082,-0.0789,-0.0706,-0.0704,-0.0702,0,-0.0443,-0.0462,-0.0493,-0.0529,-0.0552,-0.0592,-0.0563,-0.0573,-0.062,-0.062,-0.0726,-0.0891,-0.0899,-0.0877,-0.0882,-0.0847,0,0,0,-0.0423,-0.0432,-0.0439,-0.0488,-0.0517,-0.0515,-0.0547,-0.0525,-0.0624,-0.0541,-0.0657,-0.0669,-0.0859,-0.102,-0.1009,-0.1014,-0.0976,0,0]},{"header":{"parameterUnit":"m.s-1","parameterCategory":2,"la1":30.2992,"la2":30.254,"lo1":-89.0895,"lo2":-89.0443,"dy":0.0025,"dx":0.0025,"nx":19,"ny":19,"refTime":"2026-05-13T21:00:00:Z","depth":"4","parameterNumber":3,"parameterNumberName":"V-component_of_CURRENTS"},"data":[0,0,0,-0.0205,-0.0205,-0.0221,-0.0221,-0.0174,-0.0174,0,0,0,0,0,0,0,0,0,0,0,-0.0201,-0.0201,-0.0205,-0.0205,-0.0221,-0.0221,-0.0175,-0.0174,0,0,0,0,0,0,0,0,0,0,0,-0.02,-0.0201,-0.0201,-0.0206,-0.0221,-0.0221,-0.0175,-0.0179,0,0,0,0,0,0,0,0,0,0,-0.0173,-0.0183,-0.0201,-0.0201,-0.0206,-0.0221,-0.0221,-0.018,-0.0179,-0.0149,0,-0.0154,0,-0.0161,-0.0169,-0.0169,0,0,0,-0.0205,-0.0184,-0.0183,-0.0201,-0.0206,-0.0221,-0.0214,-0.018,-0.0179,-0.0147,-0.0154,-0.0153,-0.016,-0.0169,-0.0169,-0.0081,-0.008,0,0,-0.0204,-0.0205,-0.0184,-0.0182,-0.0212,-0.0213,-0.0214,-0.018,-0.018,-0.0154,-0.0152,-0.0159,-0.0168,-0.0168,-0.0081,-0.0081,0,0,0,-0.0202,-0.0205,-0.0206,-0.0184,-0.0191,-0.0214,-0.0215,-0.0182,-0.0182,-0.0152,-0.0159,-0.0168,-0.0167,-0.0082,-0.0081,-0.0104,0,0,0,-0.0201,-0.0204,-0.0206,-0.0207,-0.0192,-0.0197,-0.0218,-0.0184,-0.0181,-0.0159,-0.0168,-0.0167,-0.0082,-0.0081,-0.0104,-0.0175,0,0,0,-0.0199,-0.0203,-0.0205,-0.0207,-0.0214,-0.0198,-0.0196,-0.0184,-0.0184,-0.0169,-0.0166,-0.0083,-0.0082,-0.0105,-0.0173,-0.0143,0,0,0,-0.02,-0.0213,-0.0205,-0.0226,-0.0214,-0.0245,-0.0197,-0.0209,-0.0203,-0.0168,-0.0082,-0.0081,-0.0105,-0.0172,-0.0142,-0.011,0,0,0,-0.0218,-0.0216,-0.0229,-0.0222,-0.0256,-0.0243,-0.0283,-0.0246,-0.0166,-0.009,-0.0088,-0.0104,-0.0173,-0.0143,-0.0046,0,0,0,0,-0.0236,-0.0242,-0.0252,-0.0269,-0.0287,-0.0312,-0.0294,-0.0252,-0.0148,-0.0156,-0.0076,-0.0119,-0.0099,-0.0076,-0.0076,-0.0076,-0.0076,-0.0076,-0.0076,-0.0246,-0.0263,-0.0292,-0.0315,-0.0339,-0.0359,-0.0354,-0.0281,-0.0197,-0.0127,-0.0114,-0.0085,-0.0058,-0.0054,-0.0054,-0.0054,-0.0054,-0.0054,-0.0054,-0.0273,-0.0293,-0.032,-0.035,-0.0382,-0.0413,-0.0381,-0.032,-0.0206,-0.0129,-0.0104,-0.0074,-0.0056,-0.0055,-0.0055,-0.0055,-0.0055,-0.0055,-0.0055,-0.0276,-0.0293,-0.0308,-0.0359,-0.0403,-0.043,-0.042,-0.0361,-0.0238,-0.0209,-0.0099,-0.0102,-0.0126,-0.0128,-0.0128,-0.0128,-0.0128,-0.0129,-0.0129,-0.0276,-0.0297,-0.0327,-0.037,-0.0399,-0.0423,-0.0414,-0.0361,-0.0266,-0.0161,-0.018,-0.011,-0.0108,-0.013,-0.0131,-0.0131,-0.013,-0.013,-0.013,-0.0289,-0.0294,-0.0342,-0.0369,-0.0421,-0.0428,-0.0425,-0.0319,-0.0242,-0.0154,-0.012,-0.012,-0.0115,-0.0112,-0.0134,-0.0138,-0.0137,-0.0137,0,-0.0294,-0.0302,-0.0369,-0.0412,-0.0431,-0.044,-0.0343,-0.0283,-0.0196,-0.0192,-0.0232,-0.0201,-0.0198,-0.0198,-0.0195,-0.0225,0,0,0,-0.0307,-0.0333,-0.0379,-0.0425,-0.0445,-0.0362,-0.0319,-0.0269,-0.0215,-0.0133,-0.0127,-0.013,-0.0145,-0.0138,-0.013,-0.0127,-0.0162,0,0]}]]